Weather in Serik

Turkey     36°55′02″N   31°06′16″E
temp.,
°C
wind,
m/s
gust,
m/s
humid.,
%
clouds,
%
prec.,
mm/h
press.,
hPa
HPBL,
m
27 january, wed
wed2700:00+13sse101584100 2.9 1014953
03:00+13sse101583100 6.4 1012993
06:00+12sse121787100 3.4 10101085
09:00+13sse91678100 6.9 10061126
12:00+14se152270100 1.6 10041551
15:00+12s8149495 21.1 1002973
18:00+13s10176538 1.8 1003695
21:00+10sw267121 1.8 1006148
28 january, thu
thu2800:00+8n386488 0.4 1008294
03:00+6n476090 0.4 1009172
06:00+5n346224 0.0 101053
09:00+6n485712 0.0 1013199
12:00+11nw33430 0.0 1014898
15:00+12w223242 0.0 10132338
18:00+8ssw125642 0.0 101324
21:00+5nne236521 0.3 101436
29 january, fri
fri2900:00+5n346035 0.1 101545
03:00+3nnw356118 0.1 101471
06:00+3nnw46610 0.0 1014110
09:00+4nnw59590 0.0 1015185
12:00+10nw78420 0.0 1016756
15:00+12nw67350 0.0 10151292
18:00+8nw474754 0.0 1016112
21:00+5nnw345737 0.0 101754
30 january, sat
sat3000:00+4n23550 0.0 101733
03:00+4n225516 0.0 101725
06:00+5n2253100 0.0 101523
09:00+6n225691 0.0 101529
12:00+9sw1356100 0.1 1012366
15:00+6nnw3588100 5.8 1007186
18:00+8ne1496100 2.7 1004155
21:00+8nne2398100 13.0 100489
31 january, sun
sun3100:00+8n129191 0.2 100723
03:00+7nnw238146 0.2 100928
06:00+7nnw23800 0.0 101030
09:00+8nnw23770 0.0 101235
12:00+14se01599 0.0 1013350
15:00+16sse225440 0.0 1012998
18:00+12se127515 0.0 101424
21:00+12ese117957 0.1 101634